YAMAL 601

Last updated on Wed Oct 29 2025 00:02:50 GMT+0000 (Coordinated Universal Time)

1 44307U 19031A 25301.62450343 .00000130 00000+0 00000+0 0 9992 2 44307 0.0124 234.5268 0002188 335.1339 101.3999 1.00271955 23594
UTC large
Height (km)
Speed (km/s)
/
Latitude / Longitude
Inclination (degrees)
Orbital Period (minutes)
Azimuth
Elevation
Range (km)
Doppler Factor

Next 0 passes for location: London (51.5072 / 0.1276)

Sorry there are no passes over London.